When you browse on this site, cookies collect data to enhance your experience and personalize the content and advertising you see.
Visit our Privacy Policy to learn more. By continuing to use the site, you agree to this use of cookies and data.
  • în România
  • Lista ţărilor
  • Pe 7 zile
  • Temperatura apei
  • Meteo pe hartă
  • Widget-uri
  • user-avatar
    Intrare

    Meteo pe oră la Kumamoto

    Astăzi, 26 Ianuarie, Duminică

    Timp Temperatura Precipitaţii Vânt Presiune Umiditate
    00:00 +9°C° 4.3 mm 3 m/s 766 mmHg 89%
    01:00 +10°C° 0.5 mm 2 m/s 766 mmHg 88%
    02:00 +10°C° 0.5 mm 2 m/s 765 mmHg 87%
    03:00 +10°C° 0 mm 2 m/s 765 mmHg 85%
    04:00 +10°C° 0.8 mm 2 m/s 765 mmHg 86%
    05:00 +10°C° 0.8 mm 2 m/s 765 mmHg 87%
    06:00 +10°C° 0.8 mm 2 m/s 765 mmHg 88%
    07:00 +10°C° 0.1 mm 2 m/s 765 mmHg 87%
    08:00 +10°C° 0.1 mm 2 m/s 765 mmHg 86%
    09:00 +12°C° 0 mm 2 m/s 765 mmHg 83%
    10:00 +12°C° 0 mm 2 m/s 765 mmHg 81%
    11:00 +13°C° 0 mm 2 m/s 765 mmHg 78%
    12:00 +13°C° 0 mm 3 m/s 764 mmHg 76%
    13:00 +13°C° 0 mm 3 m/s 764 mmHg 75%
    14:00 +13°C° 0 mm 3 m/s 763 mmHg 74%
    15:00 +15°C° 0 mm 2 m/s 763 mmHg 72%
    16:00 +13°C° 0.6 mm 3 m/s 763 mmHg 75%
    17:00 +12°C° 0.6 mm 3 m/s 763 mmHg 79%
    18:00 +11°C° 0.6 mm 4 m/s 762 mmHg 82%
    19:00 +11°C° 0.5 mm 4 m/s 762 mmHg 79%
    20:00 +10°C° 0.5 mm 4 m/s 762 mmHg 76%
    21:00 +9°C° 0.5 mm 5 m/s 762 mmHg 74%
    22:00 +9°C° 0.9 mm 5 m/s 762 mmHg 76%
    23:00 +8°C° 0.9 mm 5 m/s 761 mmHg 78%

    Mâine, 27 Ianuarie, Luni

    Timp Temperatura Precipitaţii Vânt Presiune Umiditate
    00:00 +8°C° 0.9 mm 5 m/s 761 mmHg 80%
    01:00 +9°C° 0.5 mm 5 m/s 759 mmHg 81%
    02:00 +9°C° 0.5 mm 6 m/s 758 mmHg 82%
    03:00 +10°C° 0.5 mm 6 m/s 757 mmHg 83%
    04:00 +10°C° 1.3 mm 6 m/s 756 mmHg 82%
    05:00 +11°C° 1.3 mm 6 m/s 755 mmHg 82%
    06:00 +11°C° 1.3 mm 6 m/s 754 mmHg 81%
    07:00 +12°C° 0.1 mm 7 m/s 753 mmHg 77%
    08:00 +14°C° 0.1 mm 7 m/s 752 mmHg 74%
    09:00 +15°C° 0.1 mm 8 m/s 751 mmHg 70%
    10:00 +17°C° 0.1 mm 9 m/s 750 mmHg 68%
    11:00 +18°C° 0.1 mm 10 m/s 749 mmHg 66%
    12:00 +19°C° 0.1 mm 11 m/s 748 mmHg 64%
    13:00 +19°C° 0.4 mm 10 m/s 747 mmHg 67%
    14:00 +21°C° 0.4 mm 9 m/s 746 mmHg 70%
    15:00 +21°C° 0.4 mm 8 m/s 745 mmHg 73%
    16:00 +18°C° 0.3 mm 8 m/s 746 mmHg 75%
    17:00 +16°C° 0.3 mm 8 m/s 746 mmHg 76%
    18:00 +13°C° 0.3 mm 8 m/s 747 mmHg 77%
    19:00 +12°C° 0.1 mm 8 m/s 748 mmHg 78%
    20:00 +12°C° 0.1 mm 7 m/s 749 mmHg 79%
    21:00 +11°C° 0.1 mm 6 m/s 749 mmHg 80%
    22:00 +11°C° 0.1 mm 6 m/s 750 mmHg 79%
    23:00 +10°C° 0.1 mm 5 m/s 751 mmHg 77%

    Poimâine, 28 Ianuarie, Marţi

    Timp Temperatura Precipitaţii Vânt Presiune Umiditate
    00:00 +10°C° 0.1 mm 5 m/s 752 mmHg 76%
    01:00 +10°C° 0 mm 5 m/s 752 mmHg 77%
    02:00 +9°C° 0 mm 5 m/s 753 mmHg 78%
    03:00 +10°C° 0 mm 4 m/s 753 mmHg 79%
    04:00 +10°C° 0 mm 4 m/s 753 mmHg 78%
    05:00 +10°C° 0 mm 4 m/s 754 mmHg 78%
    06:00 +10°C° 0 mm 4 m/s 754 mmHg 78%
    07:00 +10°C° 0 mm 4 m/s 755 mmHg 77%
    08:00 +10°C° 0 mm 4 m/s 755 mmHg 76%
    09:00 +11°C° 0 mm 4 m/s 756 mmHg 74%
    10:00 +11°C° 0 mm 4 m/s 756 mmHg 73%
    11:00 +11°C° 0 mm 4 m/s 756 mmHg 71%
    12:00 +12°C° 0 mm 4 m/s 756 mmHg 69%
    13:00 +12°C° 0.1 mm 4 m/s 756 mmHg 68%
    14:00 +12°C° 0.1 mm 3 m/s 756 mmHg 67%
    15:00 +12°C° 0.1 mm 3 m/s 756 mmHg 66%
    16:00 +12°C° 0.1 mm 3 m/s 757 mmHg 70%
    17:00 +11°C° 0.1 mm 3 m/s 757 mmHg 73%
    18:00 +11°C° 0.1 mm 3 m/s 757 mmHg 77%
    19:00 +10°C° 0.1 mm 2 m/s 758 mmHg 78%
    20:00 +10°C° 0.1 mm 2 m/s 758 mmHg 79%
    21:00 +10°C° 0.1 mm 2 m/s 758 mmHg 79%
    22:00 +11°C° 0.1 mm 1 m/s 758 mmHg 79%
    23:00 +11°C° 0.1 mm 1 m/s 758 mmHg 80%

    29 Ianuarie, Miercuri

    Timp Temperatura Precipitaţii Vânt Presiune Umiditate
    00:00 +10°C° 0.1 mm 1 m/s 758 mmHg 80%
    01:00 +10°C° 0.1 mm 1 m/s 758 mmHg 81%
    02:00 +10°C° 0.1 mm 1 m/s 758 mmHg 82%
    03:00 +10°C° 0.1 mm 1 m/s 758 mmHg 83%
    04:00 +10°C° 0.1 mm 1 m/s 758 mmHg 83%
    05:00 +10°C° 0.1 mm 1 m/s 757 mmHg 82%
    06:00 +10°C° 0.1 mm 1 m/s 757 mmHg 82%
    07:00 +10°C° 0.1 mm 1 m/s 757 mmHg 80%
    08:00 +11°C° 0.1 mm 1 m/s 758 mmHg 77%
    09:00 +11°C° 0.1 mm 1 m/s 758 mmHg 75%
    10:00 +10°C° 0.1 mm 2 m/s 757 mmHg 72%
    11:00 +12°C° 0.1 mm 2 m/s 757 mmHg 69%
    12:00 +11°C° 0.1 mm 3 m/s 757 mmHg 66%
    13:00 +11°C° 0.3 mm 4 m/s 757 mmHg 68%
    14:00 +11°C° 0.3 mm 4 m/s 756 mmHg 70%
    15:00 +9°C° 0.3 mm 5 m/s 756 mmHg 72%
    16:00 +9°C° 0.2 mm 5 m/s 756 mmHg 72%
    17:00 +8°C° 0.2 mm 5 m/s 756 mmHg 71%
    18:00 +8°C° 0.2 mm 4 m/s 757 mmHg 70%
    19:00 +8°C° 0.1 mm 4 m/s 757 mmHg 70%
    20:00 +7°C° 0.1 mm 4 m/s 757 mmHg 70%
    21:00 +7°C° 0.1 mm 4 m/s 757 mmHg 69%
    22:00 +8°C° 0 mm 3 m/s 757 mmHg 69%
    23:00 +7°C° 0 mm 3 m/s 756 mmHg 68%

    30 Ianuarie, Joi

    Timp Temperatura Precipitaţii Vânt Presiune Umiditate
    00:00 +7°C° 0 mm 3 m/s 756 mmHg 67%
    01:00 +7°C° 0 mm 3 m/s 756 mmHg 68%
    02:00 +7°C° 0 mm 3 m/s 756 mmHg 69%
    03:00 +7°C° 0 mm 3 m/s 756 mmHg 69%
    04:00 +7°C° 0.1 mm 3 m/s 755 mmHg 70%
    05:00 +7°C° 0.1 mm 3 m/s 755 mmHg 70%
    06:00 +7°C° 0.1 mm 3 m/s 755 mmHg 71%
    07:00 +6°C° 0 mm 4 m/s 756 mmHg 70%
    08:00 +6°C° 0 mm 4 m/s 756 mmHg 68%
    09:00 +7°C° 0 mm 4 m/s 756 mmHg 66%
    10:00 +7°C° 0.1 mm 5 m/s 756 mmHg 64%
    11:00 +8°C° 0.1 mm 5 m/s 756 mmHg 62%
    12:00 +8°C° 0.1 mm 5 m/s 756 mmHg 60%
    13:00 +8°C° 0.2 mm 5 m/s 755 mmHg 60%
    14:00 +8°C° 0.2 mm 6 m/s 755 mmHg 59%
    15:00 +8°C° 0.2 mm 6 m/s 755 mmHg 59%
    16:00 +8°C° 0.1 mm 5 m/s 755 mmHg 61%
    17:00 +7°C° 0.1 mm 5 m/s 756 mmHg 64%
    18:00 +7°C° 0.1 mm 5 m/s 756 mmHg 66%
    19:00 +7°C° 0 mm 4 m/s 756 mmHg 68%
    20:00 +6°C° 0 mm 4 m/s 757 mmHg 70%
    21:00 +7°C° 0 mm 3 m/s 757 mmHg 71%
    22:00 +7°C° 0.1 mm 3 m/s 757 mmHg 73%
    23:00 +7°C° 0.1 mm 3 m/s 757 mmHg 74%

    31 Ianuarie, Vineri

    Timp Temperatura Precipitaţii Vânt Presiune Umiditate
    00:00 +7°C° 0.1 mm 3 m/s 757 mmHg 75%
    01:00 +7°C° 0.2 mm 3 m/s 757 mmHg 77%
    02:00 +7°C° 0.2 mm 3 m/s 758 mmHg 80%
    03:00 +7°C° 0.2 mm 3 m/s 758 mmHg 83%
    04:00 +7°C° 0.1 mm 3 m/s 758 mmHg 83%
    05:00 +7°C° 0.1 mm 2 m/s 758 mmHg 83%
    06:00 +8°C° 0.1 mm 2 m/s 759 mmHg 84%
    07:00 +8°C° 0.1 mm 2 m/s 759 mmHg 82%
    08:00 +8°C° 0.1 mm 2 m/s 760 mmHg 79%
    09:00 +9°C° 0.1 mm 2 m/s 760 mmHg 77%
    10:00 +10°C° 0.1 mm 3 m/s 760 mmHg 72%
    11:00 +11°C° 0.1 mm 3 m/s 760 mmHg 66%
    12:00 +11°C° 0.1 mm 3 m/s 760 mmHg 61%
    13:00 +11°C° 0.1 mm 3 m/s 760 mmHg 60%
    14:00 +12°C° 0.1 mm 4 m/s 760 mmHg 58%
    15:00 +12°C° 0.1 mm 4 m/s 760 mmHg 56%
    16:00 +10°C° 0 mm 4 m/s 761 mmHg 60%
    17:00 +8°C° 0 mm 4 m/s 761 mmHg 64%
    18:00 +7°C° 0 mm 4 m/s 761 mmHg 68%
    19:00 +8°C° 0 mm 3 m/s 762 mmHg 70%
    20:00 +7°C° 0 mm 3 m/s 762 mmHg 71%
    21:00 +5°C° 0 mm 3 m/s 763 mmHg 72%
    22:00 +5°C° 0 mm 3 m/s 763 mmHg 72%
    23:00 +4°C° 0 mm 3 m/s 763 mmHg 72%
    Arată mai mult